[[{"header":{"parameterUnit":"m.s-1","parameterCategory":1,"la1":30.2991,"la2":30.254,"lo1":-89.0895,"lo2":-89.0444,"dy":0.0017,"dx":0.0017,"nx":28,"ny":28,"refTime":"2024-04-25T09:00:00:Z","depth":0,"parameterNumber":2,"parameterNumberName":"U-component_of_WINDS"},"data":[0,0,0,0,0,0,0,0,0,0,0,0,0,0,0,0,0,0,0,0,0,0,0,0,0,0,0,0,0,0,0,0,0,0,0,0,0,0,0,0,0,0,0,0,0,0,0,0,0,0,0,0,0,0,0,0,0,0,-3.1054,-3.1055,0,-3.1171,-3.1173,-3.1174,-3.1193,-3.1192,-3.1191,-3.119,-3.1311,-3.1315,-3.1319,0,0,0,0,0,0,0,0,0,0,0,0,0,-3.0848,-3.0852,-3.1054,-3.1055,-3.1057,-3.1171,-3.1173,-3.1174,-3.1193,-3.1192,-3.1191,-3.119,-3.1309,-3.1314,-3.1319,0,0,0,0,0,0,0,0,0,0,0,0,0,-3.0949,-3.0853,-3.1053,-3.108,-3.1083,-3.1171,-3.1173,-3.1175,-3.1193,-3.1192,-3.119,-3.1189,-3.1308,-3.1314,-3.132,-3.1389,0,0,-3.1339,-3.1342,0,0,0,0,0,0,0,0,-3.0943,-3.0956,-3.1075,-3.1078,-3.1082,-3.1166,-3.1144,-3.1247,-3.1194,-3.1152,-3.119,-3.1188,-3.1264,-3.1273,-3.1299,-3.1395,-3.14,-3.1339,-3.1343,-3.1346,-3.1348,0,0,0,0,0,0,0,-3.0936,-3.0951,-3.11,-3.1076,-3.1081,-3.1087,-3.1099,-3.1164,-3.1215,-3.1155,-3.1157,-3.1171,-3.1266,-3.1293,-3.1302,-3.1402,-3.1339,-3.1345,-3.1349,-3.1351,-3.1562,-3.1564,0,0,0,0,0,0,-3.0924,-3.0945,-3.1097,-3.1104,-3.1007,-3.1092,-3.1106,-3.1141,-3.1214,-3.1224,-3.1172,-3.1171,-3.1283,-3.1295,-3.1306,-3.1393,-3.1346,-3.1352,-3.1355,-3.1561,-3.1563,-3.1565,0,0,0,0,0,0,-3.0919,-3.0937,-3.1092,-3.1025,-3.1045,-3.1097,-3.1136,-3.1144,-3.1171,-3.1227,-3.1236,-3.119,-3.1282,-3.1297,-3.1369,-3.1397,-3.1355,-3.136,-3.1558,-3.1561,-3.1564,-3.1565,0,0,0,0,0,0,-3.0913,-3.0935,-3.0961,-3.1025,-3.1049,-3.1151,-3.1138,-3.1147,-3.1182,-3.1182,-3.1246,-3.1256,-3.1282,-3.1359,-3.1375,-3.1405,-3.1365,-3.1556,-3.156,-3.1563,-3.1563,-3.1568,-3.1572,0,0,0,0,0,-3.0906,-3.0957,-3.0963,-3.0981,-3.1082,-3.1153,-3.1166,-3.1196,-3.1184,-3.1211,-3.1247,-3.1253,-3.1392,-3.1366,-3.1384,-3.1416,-3.1554,-3.1559,-3.1563,-3.1561,-3.1567,-3.1572,0,0,0,0,0,0,-3.0895,-3.0966,-3.0973,-3.1046,-3.1093,-3.1156,-3.1191,-3.1201,-3.1253,-3.1251,-3.1285,-3.13,-3.137,-3.1401,-3.1371,-3.1488,-3.1472,-3.148,-3.1465,-3.1471,-3.1476,-3.1466,-3.137,0,0,0,0,0,-3.0901,-3.0952,-3.1012,-3.107,-3.1094,-3.1139,-3.117,-3.1189,-3.124,-3.126,-3.1301,-3.135,-3.1405,-3.144,-3.1494,-3.1569,-3.1583,-3.16,-3.1604,-3.1608,-3.1614,-3.1657,-3.1665,-3.1579,-3.1579,-3.1578,0,0,-3.0913,-3.0959,-3.0989,-3.1069,-3.1108,-3.1161,-3.1155,-3.1211,-3.1251,-3.1268,-3.1338,-3.1371,-3.1428,-3.1502,-3.1536,-3.153,-3.1641,-3.1613,-3.1616,-3.162,-3.1662,-3.167,-3.1677,-3.1581,-3.1581,-3.158,0,0,-3.0963,-3.1003,-3.1056,-3.1096,-3.1156,-3.1185,-3.1198,-3.1261,-3.1283,-3.1354,-3.1368,-3.1417,-3.151,-3.1551,-3.1584,-3.1652,-3.166,-3.1669,-3.1692,-3.1733,-3.174,-3.1746,-3.1771,-3.1779,-3.1675,-3.1675,-3.1675,0,-3.0971,-3.1051,-3.1083,-3.1138,-3.1174,-3.1194,-3.1249,-3.1286,-3.136,-3.1384,-3.1376,-3.1495,-3.1535,-3.1619,-3.1636,-3.1662,-3.1678,-3.1661,-3.1737,-3.1743,-3.1749,-3.1773,-3.1782,-3.1676,-3.1676,-3.1676,-3.1676,0,-3.1058,-3.1113,-3.115,-3.1221,-3.1261,-3.1316,-3.1357,-3.1394,-3.1411,-3.1442,-3.1514,-3.1564,-3.1628,-3.165,-3.1666,-3.1737,-3.1731,-3.173,-3.1714,-3.1758,-3.178,-3.179,-3.1677,-3.1676,-3.1676,-3.1676,0,0,-3.1101,-3.1191,-3.1204,-3.1237,-3.1305,-3.1349,-3.1406,-3.1469,-3.15,-3.1552,-3.16,-3.1681,-3.168,-3.1718,-3.1739,-3.1776,-3.1828,-3.1771,-3.1772,-3.1779,-3.1909,-3.1908,-3.1918,-3.1835,-3.1836,-3.1838,-3.1904,0,-3.1158,-3.1259,-3.1291,-3.1376,-3.1428,-3.145,-3.15,-3.1547,-3.1579,-3.1628,-3.1663,-3.1719,-3.1715,-3.1738,-3.1775,-3.1813,-3.1854,-3.1809,-3.188,-3.1882,-3.1863,-3.193,-3.1929,-3.1989,-3.1913,-3.1914,-3.1916,0,-3.1238,-3.1291,-3.1381,-3.1444,-3.1467,-3.1511,-3.1572,-3.162,-3.1675,-3.1696,-3.1739,-3.1758,-3.182,-3.1802,-3.1888,-3.1857,-3.1889,-3.1912,-3.1915,-3.1921,-3.19,-3.1937,-3.2008,-3.2017,-3.193,-3.1929,-3.1928,0,-3.1259,-3.1353,-3.1419,-3.1447,-3.1523,-3.1554,-3.1587,-3.1641,-3.1678,-3.1732,-3.1756,-3.1817,-3.185,-3.1897,-3.1933,-3.1917,-3.2016,-3.2001,-3.2035,-3.2034,-3.2052,-3.205,-3.2128,-3.2075,-3.2075,-3.2075,-3.2075,0,-3.1318,-3.1372,-3.143,-3.1471,-3.1533,-3.157,-3.163,-3.1665,-3.1714,-3.1762,-3.1785,-3.183,-3.1876,-3.1927,-3.1956,-3.2023,-3.2038,-3.2056,-3.2063,-3.2053,-3.205,-3.2072,-3.2069,-3.2077,-3.2077,-3.2076,-3.2076,0,-3.1351,-3.1392,-3.1466,-3.1532,-3.1551,-3.1593,-3.1651,-3.1692,-3.1725,-3.1786,-3.1803,-3.1856,-3.1918,-3.1959,-3.2038,-3.2058,-3.213,-3.2136,-3.2111,-3.2114,-3.2144,-3.214,-3.2238,-3.2253,-3.2191,-3.2191,-3.2192,0,-3.1386,-3.1428,-3.15,-3.1534,-3.1567,-3.1622,-3.1659,-3.1699,-3.1737,-3.1805,-3.1838,-3.1902,-3.1955,-3.2053,-3.2099,-3.216,-3.2168,-3.2198,-3.2177,-3.2166,-3.2167,-3.2163,-3.2168,-3.22,-3.2201,-3.2201,-3.2202,0,-3.1442,-3.1461,-3.1514,-3.1575,-3.162,-3.167,-3.172,-3.1747,-3.1795,-3.1838,-3.1902,-3.1943,-3.2025,-3.2088,-3.2154,-3.2189,-3.2204,-3.2208,-3.2219,-3.2209,-3.2192,-3.2201,-3.2118,-3.2205,-3.2205,-3.2205,-3.2204,-3.2204,-3.1476,-3.1515,-3.1572,-3.1631,-3.1673,-3.172,-3.1762,-3.1802,-3.1856,-3.1925,-3.1946,-3.2012,-3.2069,-3.2159,-3.2196,-3.2249,-3.2246,-3.2262,-3.2266,-3.2268,-3.2268,-3.2185,-3.2262,-3.2262,-3.2262,-3.2262,-3.2262,0,-3.1533,-3.1571,-3.1626,-3.1695,-3.1742,-3.1753,-3.181,-3.1849,-3.1907,-3.1959,-3.2011,-3.2085,-3.2147,-3.2199,-3.2263,-3.2296,-3.2305,-3.2312,-3.2309,-3.2317,-3.2268,-3.2251,-3.2304,-3.2304,-3.2304,-3.2304,-3.2304,-3.2304,-3.1568,-3.1635,-3.1661,-3.1749,-3.1787,-3.1852,-3.1884,-3.1928,-3.197,-3.2051,-3.2103,-3.2137,-3.2189,-3.2258,-3.2316,-3.233,-3.2352,-3.2357,-3.2372,-3.2325,-3.232,-3.2315,-3.23,-3.2362,-3.2362,-3.2417,-3.2417,-3.2417]},{"header":{"parameterUnit":"m.s-1","parameterCategory":1,"la1":30.2991,"la2":30.254,"lo1":-89.0895,"lo2":-89.0444,"dy":0.0017,"dx":0.0017,"nx":28,"ny":28,"refTime":"2024-04-25T09:00:00:Z","depth":0,"parameterNumber":3,"parameterNumberName":"V-component_of_WINDS"},"data":[0,0,0,0,0,0,0,0,0,0,0,0,0,0,0,0,0,0,0,0,0,0,0,0,0,0,0,0,0,0,0,0,0,0,0,0,0,0,0,0,0,0,0,0,0,0,0,0,0,0,0,0,0,0,0,0,0,0,5.0699,5.0699,0,5.0683,5.0683,5.0683,5.0618,5.0617,5.0615,5.0614,5.0598,5.0599,5.06,0,0,0,0,0,0,0,0,0,0,0,0,0,5.0675,5.0676,5.0699,5.0699,5.0699,5.0683,5.0683,5.0683,5.0618,5.0617,5.0615,5.0613,5.0597,5.0598,5.06,0,0,0,0,0,0,0,0,0,0,0,0,0,5.0675,5.0676,5.0699,5.0665,5.0661,5.0683,5.0683,5.0683,5.0619,5.0617,5.0614,5.0612,5.0597,5.0598,5.06,5.0653,0,0,5.0604,5.0605,0,0,0,0,0,0,0,0,5.0675,5.0676,5.067,5.0667,5.0663,5.065,5.0668,5.0673,5.0619,5.0635,5.0614,5.0611,5.0617,5.0617,5.0619,5.0653,5.0652,5.0604,5.0605,5.0606,5.0606,0,0,0,0,0,0,0,5.0675,5.0676,5.0693,5.067,5.0666,5.065,5.0648,5.0669,5.0639,5.0633,5.0629,5.0628,5.0615,5.0617,5.0618,5.0652,5.0604,5.0606,5.0606,5.0607,5.073,5.0733,0,0,0,0,0,0,5.068,5.0677,5.0693,5.0692,5.0664,5.0653,5.065,5.0657,5.0638,5.0633,5.063,5.0625,5.0616,5.0616,5.0617,5.0679,5.0606,5.0607,5.0608,5.0728,5.0731,5.0733,0,0,0,0,0,0,5.068,5.0682,5.0694,5.0683,5.0683,5.0655,5.0664,5.0658,5.066,5.0635,5.063,5.0638,5.0614,5.0615,5.0645,5.0677,5.0608,5.0609,5.0725,5.0729,5.0732,5.0803,0,0,0,0,0,0,5.0679,5.0682,5.0702,5.0684,5.0684,5.0722,5.0666,5.0659,5.0663,5.0656,5.0641,5.0637,5.0613,5.0643,5.0647,5.0678,5.061,5.0722,5.0727,5.0731,5.0798,5.0809,5.0818,0,0,0,0,0,5.0679,5.0722,5.0703,5.0705,5.0708,5.0724,5.0724,5.0695,5.0666,5.0685,5.067,5.0637,5.0674,5.0647,5.065,5.0683,5.072,5.0725,5.0731,5.0793,5.0807,5.0818,0,0,0,0,0,0,5.0744,5.0719,5.0698,5.0737,5.0733,5.0713,5.0737,5.071,5.0714,5.0708,5.0672,5.0669,5.0705,5.0697,5.0667,5.0734,5.0691,5.0698,5.0738,5.0751,5.0761,5.0762,5.0611,0,0,0,0,0,5.0763,5.0778,5.0755,5.0792,5.0791,5.0765,5.077,5.0749,5.0743,5.0741,5.0728,5.0724,5.0735,5.0742,5.075,5.0797,5.0793,5.0821,5.0831,5.084,5.0845,5.087,5.0883,5.0751,5.0751,5.0751,0,0,5.0802,5.079,5.0802,5.0805,5.0799,5.0816,5.0764,5.0783,5.0795,5.0744,5.0772,5.0762,5.0756,5.0795,5.0811,5.0789,5.0881,5.0847,5.0854,5.0855,5.0877,5.089,5.0901,5.0755,5.0754,5.0754,0,0,5.0882,5.0874,5.0905,5.0901,5.0893,5.0876,5.0883,5.0868,5.086,5.0887,5.085,5.0864,5.0883,5.088,5.0881,5.0963,5.0933,5.0966,5.1019,5.1044,5.1054,5.1063,5.1093,5.1104,5.0972,5.0972,5.0973,0,5.0931,5.0954,5.0924,5.0946,5.0949,5.0904,5.0935,5.0933,5.0929,5.0932,5.0908,5.0931,5.0924,5.0962,5.0982,5.0984,5.0992,5.0967,5.1055,5.1064,5.1072,5.11,5.1111,5.0977,5.0976,5.0976,5.0975,0,5.1016,5.1033,5.1058,5.1056,5.1062,5.1089,5.1062,5.1072,5.1051,5.1036,5.1065,5.1055,5.1061,5.1069,5.1047,5.1104,5.1091,5.1062,5.1018,5.1089,5.1115,5.1125,5.0982,5.0981,5.098,5.0979,0,0,5.1135,5.1117,5.1126,5.1126,5.1115,5.1128,5.1153,5.1159,5.1169,5.1168,5.1189,5.1207,5.118,5.1181,5.116,5.1182,5.1248,5.1149,5.1149,5.1168,5.1311,5.1333,5.1345,5.1229,5.1231,5.1232,5.1311,0,5.1211,5.1252,5.1227,5.1272,5.1288,5.1248,5.127,5.1266,5.1254,5.1266,5.1252,5.1265,5.1229,5.123,5.1249,5.1236,5.1276,5.1229,5.1248,5.1249,5.125,5.1358,5.1381,5.1456,5.1321,5.1322,5.1324,0,5.1305,5.1309,5.1357,5.1345,5.1351,5.1371,5.1375,5.1387,5.1383,5.1373,5.1376,5.1349,5.1373,5.1331,5.1365,5.1334,5.134,5.1335,5.1337,5.1337,5.129,5.1362,5.148,5.1491,5.1339,5.1338,5.1337,0,5.1387,5.1405,5.1436,5.1436,5.1423,5.1439,5.1434,5.1428,5.1434,5.1438,5.1442,5.1449,5.1452,5.1459,5.1435,5.1407,5.1473,5.1428,5.1465,5.1466,5.148,5.1479,5.16,5.1484,5.1484,5.1484,5.1484,0,5.1475,5.1505,5.1473,5.1492,5.1526,5.1496,5.1531,5.1522,5.1517,5.1534,5.1499,5.1516,5.1484,5.1498,5.148,5.1511,5.1513,5.1506,5.15,5.1509,5.151,5.1512,5.1506,5.1487,5.1486,5.1486,5.1485,0,5.1571,5.1551,5.1582,5.1568,5.1565,5.1591,5.1579,5.1596,5.1582,5.1605,5.1608,5.1586,5.1601,5.1578,5.159,5.1578,5.1621,5.1608,5.1623,5.1619,5.1657,5.1654,5.1784,5.18,5.1674,5.1675,5.1676,0,5.1629,5.1652,5.164,5.165,5.1647,5.1662,5.1669,5.1641,5.1649,5.1647,5.1665,5.1677,5.1685,5.1711,5.1696,5.1705,5.1692,5.1737,5.1693,5.1701,5.1693,5.1692,5.1695,5.1746,5.1748,5.1749,5.175,0,5.1732,5.1722,5.1732,5.174,5.1749,5.1753,5.1755,5.1765,5.1736,5.1747,5.1762,5.1768,5.1781,5.1794,5.18,5.1795,5.1768,5.1764,5.1773,5.1781,5.1789,5.1786,5.1647,5.1761,5.176,5.1759,5.1758,5.1758,5.1811,5.183,5.1826,5.1839,5.1838,5.1841,5.1858,5.1846,5.1858,5.1867,5.185,5.187,5.1866,5.1871,5.187,5.1885,5.1865,5.1878,5.1882,5.1885,5.1892,5.1787,5.1886,5.1886,5.1885,5.1885,5.1885,0,5.1913,5.1909,5.1922,5.1926,5.1937,5.1912,5.1913,5.1924,5.1942,5.1941,5.195,5.1968,5.198,5.1967,5.1978,5.1992,5.198,5.1996,5.1994,5.1994,5.1908,5.19,5.2005,5.2005,5.2005,5.2005,5.2005,5.2005,5.1968,5.1999,5.1988,5.2019,5.2014,5.2034,5.2037,5.204,5.2039,5.2061,5.2072,5.2063,5.2058,5.2068,5.2078,5.2074,5.208,5.21,5.2091,5.2012,5.2,5.1988,5.198,5.2101,5.2101,5.2176,5.2176,5.2177]}]]